{"data":{"norad_id":69884,"intl_designator":"2026-156R","name":"YAM-17","alt_names":[],"object_type":"PAYLOAD","status":"ACTIVE","operator":null,"country":"US","launch_date":"2026-07-07","launch_site_code":"AFWTR","launch_vehicle":null,"mission":null,"orbit_class":"UNKNOWN","rcs_meters":null,"size_class":null,"mass_kg":null,"dimensions":null,"purposes":[],"wikipedia_slug":null,"has_3d_model":false,"image_url":null,"decayed_at":null,"tle_current":{"epoch":"2026-09-19T23:26:01.489632Z","epoch_age_seconds":66924,"freshness":"FRESH","line1":"1 69884U 26156R   26262.97640613  .00000845  00000+0  91964-4 0  9998","line2":"2 69884  97.5583 160.9296 0001861  68.2817 291.8600 14.90463377 11120","mean_motion":14.90463377,"eccentricity":0.0001861,"inclination_deg":97.5583,"raan_deg":160.9296,"arg_perigee_deg":68.2817,"mean_anomaly_deg":291.86,"bstar":9.1964e-5,"rev_number":1112,"period_min":96.614249113482,"perigee_km":595.19173014222,"apogee_km":597.787686203,"semimajor_km":6974.6267081726,"source":"CELESTRAK","updated_at":"2026-09-20T09:00:25.166706Z"}}}